FENGYUN 1C DEB, 31615

Orbit data source: Space-Track

FENGYUN 1C DEB, 31615 is space debris in SSO originally from a launch on Mon, 10 May 1999 UTC launched from the Taiyaun Space Center, China (TSC). Fengyun 1C debris stems from the Chinese weather satellite Fengyun-1C, which was intentionally destroyed by a Chinese anti-satellite missile in 2007. This event dramatically increased the amount of space debris, with thousands of trackable fragments posing hazards to satellites and human spaceflight. The Fengyun 1C debris cloud has become a focal point in discussions about space sustainability and the need for international regulations to prevent the creation of new debris.

Loading next visibility...
Identifier
31615, 1999-025BZV
Orbit
SSO
Country
Flag of CNCN / PRC
Related business
Manufacturer
Unknown
Mission
Spacecraft
Bus & Motor
Unknown
Mass
Unknown
Launch date (UTC)
1999-05-10 (27 years ago)
Launch vehicle
Unknown
Launch site
Taiyaun Space Center, China (TSC)
Object type
Payload
Rocket body
Debris
Shape & HBR
Unknown shape, 0.1 m
Radar Cross Section
Small (<0.1 m²)

Expand to show TLE details & history
Last TLE update: 2 days ago

TLE from 2 days ago
0 FENGYUN 1C DEB
1 31615U 99025BZV 25352.37631797  .00008876  00000-0  26535-2 0  9993
2 31615  99.1382  44.1395 0166295 300.1486  58.3309 14.35447371653592
Epoch: 2025-12-18T09:01Z
TLE epoch observation values (Epoch: 2025-12-18T09:01:53.872Z)
Latitude
-0.00003°
Longitude
-178.56767°
Altitude
715.503 km
Speed
7.53 km/s
True Right ascension
02h 56m 33s
True Declination
0° 00' 00"
Sunlit
Object was in full shadow at epoch
Visualization orbit readout
Latitude
Unknown
Longitude
Unknown
Altitude
Unknown
Speed
Unknown
Apparent Right ascension
Unknown
Apparent Declination
Unknown
Sunlit
N/A
Visualization observer readout
Local Sidereal Time
23:34:59
Azimuth
Unknown
Elevation
Unknown
Doppler factor
Unknown
Orbital elements
Apogee altitude
889.62 km
Perigee altitude
651.856 km
Semi-major axis
7,148.875 km
Eccentricity
0.01663
Inclination
99.1382°
RAAN
44.1395°
Arg. of periapsis
300.1486°
True anomaly
59.97041°
Mean anomaly
58.3309°
Eccentric anomaly
59.14888°
Mean motion
3.59076 °/min
Orbital period
100.26 mins
BSTAR
0.0026535
Loading maneuver chart data...
Computing Atmospheric mass density...
Loading historical data...
Loading historical data...
Loading historical data...
Loading historical data...
Loading historical data...
Loading historical data...
Loading historical data...

Documentation

Showing up to 5 results
|